Ellsworth AFB, SD

11:37 PM MST on November 19, 2017 (GMT -0700)
Ellsworth Air Force Base

Weather History for KRCA - November, 2012

Change the Weather History Date:

Thursday, November 8, 2012

  Actual Average Record
Temperature  
Mean Temperature 39 °F -  
Max Temperature 48 °F 46 °F 84 °F (1999)
Min Temperature 30 °F 25 °F 12 °F (2000)
Degree Days  
Heating Degree Days 26    
Moisture  
Dew Point 30 °F    
Average Humidity 68    
Maximum Humidity 93    
Minimum Humidity 50    
Precipitation  
Precipitation 0.00 in - - ()
Sea Level Pressure  
Sea Level Pressure 29.98 in    
Wind  
Wind Speed 16 mph (NE)    
Max Wind Speed 28 mph    
Max Gust Speed 32 mph    
Visibility 10 miles    
Events      
Averages and records for this station are not official NWS values.
T = Trace of Precipitation, MM = Missing Value Source: NWS Daily Summary

Daily Weather History Graph

Daily Weather History Graph

Search for Another Location

Airport or City:

Trip Planner

Search our weather history database for the weather conditions in past years. The results will help you decide how hot, cold, wet, or windy it might be!

Date:

Astronomy

Nov. 08, 2012 Rise Set
Actual Time 6:39 AM MST 4:32 PM MST
Civil Twilight 6:08 AM MST 5:03 PM MST
Nautical Twilight 5:33 AM MST 5:37 PM MST
Astronomical Twilight 4:59 AM MST 6:11 PM MST
Moon 12:24 AM MST (11/8) 1:25 PM MST (11/8)
Length of Visible Light 10h 54m
Length of Day
9h 53m
Waning Crescent, 32% of the Moon is Illuminated
Nov 8
Waning Crescent
Nov 13
New
Nov 20
First Quarter
Nov 28
Full
Dec 6
Last Quarter

Hourly Weather History & Observations

Time (MST) Temp. Windchill Dew Point Humidity Pressure Visibility Wind Dir Wind Speed Gust Speed Precip Events Conditions
12:55 AM 48.0 °F - 35.8 °F 63% 29.81 in 10.0 mi NNW 19.6 mph - N/A   Clear
1:55 AM 48.0 °F - 33.6 °F 57% 29.84 in 10.0 mi NNW 27.6 mph 32.2 mph N/A   Clear
2:55 AM 46.2 °F 38.1 °F 31.6 °F 57% 29.89 in 10.0 mi North 23.0 mph 32.2 mph N/A   Clear
3:55 AM 44.6 °F 36.4 °F 31.1 °F 59% 29.92 in 10.0 mi North 20.7 mph 27.6 mph N/A   Clear
4:55 AM 43.5 °F 35.2 °F 30.9 °F 61% 29.94 in 10.0 mi NNW 19.6 mph - N/A   Clear
5:55 AM 41.4 °F 34.3 °F 30.4 °F 65% 29.99 in 10.0 mi NNW 12.7 mph - N/A   Clear
6:55 AM 38.7 °F 31.8 °F 29.1 °F 69% 30.03 in 10.0 mi NNW 10.4 mph - N/A   Clear
7:55 AM 44.1 °F 39.0 °F 29.1 °F 56% 30.03 in 10.0 mi NNW 9.2 mph - N/A   Clear
8:55 AM 46.9 °F - 28.9 °F 50% 30.05 in 10.0 mi North 15.0 mph - N/A   Clear
9:55 AM 47.5 °F - 30.6 °F 52% 30.07 in 10.0 mi North 13.8 mph 21.9 mph N/A   Partly Cloudy
10:55 AM 46.6 °F - 31.6 °F 56% 30.05 in 10.0 mi North 15.0 mph - N/A   Clear
11:55 AM 47.5 °F - 32.5 °F 56% 30.01 in 10.0 mi North 13.8 mph - N/A   Scattered Clouds
12:55 PM 46.6 °F - 30.0 °F 53% 30.01 in 10.0 mi NE 11.5 mph - N/A   Scattered Clouds
1:16 PM 46.4 °F 41.5 °F 30.2 °F 53% 29.97 in 10.0 mi ENE 10.4 mph - N/A   Clear
1:55 PM 46.9 °F - 29.3 °F 50% 29.98 in 10.0 mi East 11.5 mph - N/A   Scattered Clouds
2:55 PM 46.0 °F 41.4 °F 30.4 °F 54% 29.97 in 10.0 mi East 9.2 mph - N/A   Scattered Clouds
3:55 PM 43.9 °F 39.3 °F 29.3 °F 57% 29.97 in 10.0 mi East 8.1 mph - N/A   Clear
4:55 PM 39.7 °F 35.6 °F 28.6 °F 64% 29.99 in 10.0 mi East 5.8 mph - N/A   Clear
5:55 PM 36.7 °F 32.0 °F 27.9 °F 70% 30.00 in 10.0 mi ESE 5.8 mph - N/A   Clear
6:55 PM 34.7 °F 28.1 °F 28.0 °F 77% 30.01 in 10.0 mi East 8.1 mph - N/A   Clear
7:55 PM 31.6 °F 21.6 °F 27.3 °F 84% 30.01 in 10.0 mi ESE 13.8 mph - N/A   Partly Cloudy
8:42 PM 30.2 °F 22.6 °F 28.4 °F 93% 30.01 in 10.0 mi SE 8.1 mph - N/A   Scattered Clouds
8:46 PM 30.2 °F 23.4 °F 28.4 °F 93% 30.01 in 10.0 mi SE 6.9 mph - N/A   Mostly Cloudy
8:55 PM 30.6 °F 21.8 °F 28.0 °F 90% 30.00 in 10.0 mi SE 10.4 mph - N/A   Mostly Cloudy
9:27 PM 32.0 °F 21.2 °F 28.4 °F 87% 29.99 in 10.0 mi SE 16.1 mph - N/A   Overcast
9:55 PM 31.5 °F 20.5 °F 29.1 °F 91% 29.99 in 10.0 mi SE 16.1 mph - N/A   Overcast
10:55 PM 31.1 °F 21.4 °F 28.8 °F 91% 29.98 in 10.0 mi SE 12.7 mph - N/A   Overcast
11:55 PM 31.1 °F 22.4 °F 29.1 °F 92% 29.97 in 10.0 mi SE 10.4 mph - N/A   Overcast